When you browse on this site, cookies collect data to enhance your experience and personalize the content and advertising you see.
Visit our Privacy Policy to learn more. By continuing to use the site, you agree to this use of cookies and data.
  • en Suisse
  • Liste des pays
  • À 7 jours
  • Température de l'eau
  • Carte satellitaire
  • Carte météo
  • Widgets météo
  • user-avatar
    Se connecter

    Météo par heure à Sankt Pölten

    Ce jour, 23 Mars, Samedi

    Heure Température Précipitation Vent Pression Humidité
    00:00 +9°C° 0 mm 1 m/s 745 mmHg 80%
    01:00 +8°C° 0 mm 1 m/s 745 mmHg 83%
    02:00 +8°C° 0 mm 1 m/s 745 mmHg 84%
    03:00 +8°C° 0 mm 1 m/s 744 mmHg 85%
    04:00 +7°C° 0 mm 1 m/s 744 mmHg 85%
    05:00 +8°C° 0 mm 1 m/s 744 mmHg 84%
    06:00 +8°C° 0 mm 1 m/s 744 mmHg 83%
    07:00 +9°C° 0 mm 1 m/s 745 mmHg 77%
    08:00 +11°C° 0 mm 1 m/s 744 mmHg 69%
    09:00 +13°C° 0 mm 0 m/s 744 mmHg 61%
    10:00 +15°C° 0 mm 0 m/s 744 mmHg 53%
    11:00 +17°C° 0 mm 0 m/s 744 mmHg 50%
    12:00 +18°C° 0 mm 0 m/s 743 mmHg 47%
    13:00 +21°C° 0 mm 1 m/s 743 mmHg 43%
    14:00 +21°C° 0 mm 1 m/s 743 mmHg 44%
    15:00 +20°C° 0 mm 1 m/s 742 mmHg 45%
    16:00 +20°C° 0 mm 1 m/s 742 mmHg 46%
    17:00 +18°C° 0 mm 1 m/s 742 mmHg 54%
    18:00 +13°C° 0 mm 0 m/s 742 mmHg 62%
    19:00 +11°C° 0 mm 0 m/s 742 mmHg 71%
    20:00 +12°C° 0 mm 1 m/s 742 mmHg 73%
    21:00 +11°C° 0 mm 1 m/s 742 mmHg 75%
    22:00 +11°C° 0 mm 1 m/s 743 mmHg 77%
    23:00 +10°C° 0 mm 1 m/s 743 mmHg 78%

    Demain, 24 Mars, Dimanche

    Heure Température Précipitation Vent Pression Humidité
    00:00 +10°C° 0 mm 1 m/s 742 mmHg 79%
    01:00 +10°C° 0 mm 1 m/s 742 mmHg 80%
    02:00 +9°C° 0 mm 1 m/s 742 mmHg 80%
    03:00 +9°C° 0 mm 1 m/s 742 mmHg 81%
    04:00 +9°C° 0 mm 1 m/s 742 mmHg 81%
    05:00 +9°C° 0 mm 1 m/s 742 mmHg 80%
    06:00 +9°C° 0 mm 1 m/s 742 mmHg 79%
    07:00 +10°C° 0 mm 1 m/s 741 mmHg 78%
    08:00 +12°C° 0 mm 1 m/s 741 mmHg 70%
    09:00 +15°C° 0 mm 1 m/s 741 mmHg 63%
    10:00 +18°C° 0 mm 1 m/s 741 mmHg 55%
    11:00 +19°C° 0 mm 1 m/s 740 mmHg 52%
    12:00 +20°C° 0 mm 1 m/s 740 mmHg 49%
    13:00 +21°C° 0 mm 1 m/s 740 mmHg 46%
    14:00 +20°C° 0 mm 1 m/s 739 mmHg 47%
    15:00 +20°C° 0 mm 1 m/s 738 mmHg 48%
    16:00 +19°C° 0 mm 2 m/s 738 mmHg 50%
    17:00 +16°C° 0 mm 1 m/s 738 mmHg 58%
    18:00 +14°C° 0 mm 1 m/s 738 mmHg 67%
    19:00 +12°C° 0 mm 1 m/s 738 mmHg 75%
    20:00 +12°C° 0 mm 1 m/s 738 mmHg 77%
    21:00 +11°C° 0 mm 1 m/s 738 mmHg 79%
    22:00 +11°C° 0 mm 1 m/s 738 mmHg 81%
    23:00 +11°C° 0 mm 1 m/s 737 mmHg 84%

    Après-demain, 25 Mars, Lundi

    Heure Température Précipitation Vent Pression Humidité
    00:00 +10°C° 0 mm 1 m/s 737 mmHg 86%
    01:00 +10°C° 0 mm 1 m/s 737 mmHg 89%
    02:00 +9°C° 0 mm 2 m/s 737 mmHg 89%
    03:00 +9°C° 0 mm 2 m/s 736 mmHg 89%
    04:00 +9°C° 0 mm 2 m/s 736 mmHg 88%
    05:00 +9°C° 0.1 mm 3 m/s 736 mmHg 87%
    06:00 +9°C° 0.1 mm 3 m/s 736 mmHg 86%
    07:00 +8°C° 0.1 mm 3 m/s 736 mmHg 85%
    08:00 +9°C° 0.2 mm 3 m/s 736 mmHg 82%
    09:00 +8°C° 0.2 mm 4 m/s 736 mmHg 79%
    10:00 +8°C° 0.2 mm 4 m/s 736 mmHg 76%
    11:00 +8°C° 0.5 mm 5 m/s 735 mmHg 72%
    12:00 +8°C° 0.5 mm 6 m/s 735 mmHg 69%
    13:00 +6°C° 0.5 mm 7 m/s 735 mmHg 66%
    14:00 +6°C° 0.1 mm 7 m/s 735 mmHg 64%
    15:00 +6°C° 0.1 mm 7 m/s 735 mmHg 62%
    16:00 +6°C° 0.1 mm 7 m/s 735 mmHg 59%
    17:00 +5°C° 0.2 mm 7 m/s 736 mmHg 63%
    18:00 +4°C° 0.2 mm 6 m/s 737 mmHg 66%
    19:00 +2°C° 0.2 mm 6 m/s 737 mmHg 70%
    20:00 +2°C° 0 mm 5 m/s 738 mmHg 70%
    21:00 +2°C° 0 mm 5 m/s 739 mmHg 70%
    22:00 +1°C° 0 mm 4 m/s 739 mmHg 70%
    23:00 +1°C° 0.1 mm 4 m/s 740 mmHg 73%

    26 Mars, Mardi

    Heure Température Précipitation Vent Pression Humidité
    00:00 +2°C° 0.1 mm 3 m/s 740 mmHg 77%
    01:00 +2°C° 0.1 mm 3 m/s 741 mmHg 80%
    02:00 +2°C° 0.4 mm 3 m/s 741 mmHg 82%
    03:00 +3°C° 0.4 mm 2 m/s 741 mmHg 84%
    04:00 +3°C° 0.4 mm 2 m/s 742 mmHg 85%
    05:00 +2°C° 0.1 mm 2 m/s 743 mmHg 84%
    06:00 +1°C° 0.1 mm 3 m/s 743 mmHg 83%
    07:00 +1°C° 0.1 mm 3 m/s 744 mmHg 82%
    08:00 +2°C° 0 mm 3 m/s 744 mmHg 78%
    09:00 +1°C° 0 mm 4 m/s 744 mmHg 74%
    10:00 +3°C° 0 mm 4 m/s 745 mmHg 71%
    11:00 +4°C° 0 mm 4 m/s 745 mmHg 65%
    12:00 +5°C° 0 mm 4 m/s 744 mmHg 59%
    13:00 +7°C° 0 mm 4 m/s 744 mmHg 53%
    14:00 +7°C° 0 mm 4 m/s 744 mmHg 53%
    15:00 +7°C° 0 mm 4 m/s 744 mmHg 52%
    16:00 +7°C° 0 mm 4 m/s 744 mmHg 52%
    17:00 +5°C° 0 mm 3 m/s 744 mmHg 61%
    18:00 +4°C° 0 mm 3 m/s 744 mmHg 69%
    19:00 +2°C° 0 mm 3 m/s 745 mmHg 78%
    20:00 +2°C° 0 mm 3 m/s 745 mmHg 79%
    21:00 +2°C° 0 mm 3 m/s 745 mmHg 81%
    22:00 +2°C° 0 mm 3 m/s 746 mmHg 82%
    23:00 +3°C° 0 mm 2 m/s 746 mmHg 82%

    27 Mars, Mercredi

    Heure Température Précipitation Vent Pression Humidité
    00:00 +3°C° 0 mm 2 m/s 746 mmHg 83%
    01:00 +2°C° 0 mm 2 m/s 746 mmHg 83%
    02:00 +2°C° 0 mm 2 m/s 746 mmHg 83%
    03:00 +2°C° 0 mm 2 m/s 745 mmHg 83%
    04:00 +2°C° 0 mm 2 m/s 745 mmHg 82%
    05:00 +3°C° 0.1 mm 2 m/s 746 mmHg 83%
    06:00 +3°C° 0.1 mm 2 m/s 746 mmHg 83%
    07:00 +3°C° 0.1 mm 2 m/s 746 mmHg 83%
    08:00 +4°C° 0 mm 2 m/s 746 mmHg 77%
    09:00 +5°C° 0 mm 2 m/s 746 mmHg 72%
    10:00 +7°C° 0 mm 3 m/s 746 mmHg 66%
    11:00 +7°C° 0.1 mm 3 m/s 746 mmHg 65%
    12:00 +7°C° 0.1 mm 3 m/s 746 mmHg 64%
    13:00 +8°C° 0.1 mm 3 m/s 746 mmHg 63%
    14:00 +8°C° 0 mm 3 m/s 745 mmHg 63%
    15:00 +8°C° 0 mm 3 m/s 745 mmHg 63%
    16:00 +8°C° 0 mm 3 m/s 745 mmHg 63%
    17:00 +7°C° 0 mm 2 m/s 745 mmHg 69%
    18:00 +6°C° 0 mm 2 m/s 746 mmHg 75%
    19:00 +6°C° 0 mm 1 m/s 746 mmHg 82%
    20:00 +6°C° 0 mm 1 m/s 746 mmHg 82%
    21:00 +6°C° 0 mm 1 m/s 747 mmHg 83%
    22:00 +6°C° 0 mm 1 m/s 747 mmHg 83%
    23:00 +5°C° 0 mm 1 m/s 747 mmHg 85%

    28 Mars, Jeudi

    Heure Température Précipitation Vent Pression Humidité
    00:00 +5°C° 0 mm 1 m/s 747 mmHg 87%
    01:00 +5°C° 0 mm 1 m/s 747 mmHg 88%
    02:00 +5°C° 0 mm 1 m/s 747 mmHg 89%
    03:00 +4°C° 0 mm 1 m/s 747 mmHg 90%
    04:00 +4°C° 0 mm 1 m/s 747 mmHg 91%
    05:00 +4°C° 0 mm 1 m/s 748 mmHg 90%
    06:00 +5°C° 0 mm 1 m/s 748 mmHg 88%
    07:00 +5°C° 0 mm 1 m/s 748 mmHg 87%
    08:00 +7°C° 0 mm 1 m/s 748 mmHg 80%
    09:00 +8°C° 0 mm 1 m/s 748 mmHg 73%
    10:00 +10°C° 0 mm 1 m/s 748 mmHg 66%
    11:00 +11°C° 0 mm 1 m/s 748 mmHg 64%
    12:00 +11°C° 0 mm 1 m/s 748 mmHg 62%
    13:00 +11°C° 0 mm 0 m/s 747 mmHg 59%
    14:00 +12°C° 0 mm 1 m/s 747 mmHg 58%
    15:00 +12°C° 0 mm 1 m/s 747 mmHg 57%
    16:00 +12°C° 0 mm 1 m/s 747 mmHg 56%
    17:00 +10°C° 0 mm 1 m/s 747 mmHg 63%
    18:00 +8°C° 0 mm 0 m/s 747 mmHg 70%
    19:00 +6°C° 0 mm 0 m/s 747 mmHg 77%
    20:00 +5°C° 0 mm 0 m/s 747 mmHg 79%
    21:00 +6°C° 0 mm 1 m/s 747 mmHg 80%
    22:00 +5°C° 0 mm 1 m/s 748 mmHg 82%
    23:00 +5°C° 0 mm 1 m/s 748 mmHg 82%
    Voir plus